STARLINK-3116, 49146

Orbit data source: Space-Track

STARLINK-3116, 49146 is a payload satellite owned by SpaceX/Seattle (US) in LEO that was launched on Tue, 14 Sep 2021 UTC via an FALCON 9 launch vehicle from the Air Force Western Test Range (AFWTR). Payload-class satellites include a variety of spacecraft equipped with specific instruments for various scientific and technological missions. These include communications satellites like Starlink; space stations such as the ISS; scientific satellites like the Hubble; Earth observation satellites from companies like Planet Labs, Umbra, and HawkEye 360; GPS; miniature CubeSats for education and research; and military/defense satellites.

Loading next visibility...
Identifier
49146, 2021-082S
Orbit
LEO
Country
Flag of USUS
Related business
Manufacturer
SpaceX/Seattle
Mission
Operational Commercial Communications
Bus & Motor
STARLINK, Unknown motor
Mass
297 kg wet, ~275 kg dry
Launch date (UTC)
2021-09-14 (5 years ago)
Launch vehicle
FALCON 9
Launch site
Air Force Western Test Range (AFWTR)
Object type
Payload
Rocket body
Debris
Shape & HBR
Box + 1 Pan, 10.1 m
Radar Cross Section
13.562 m², Large (>1 m²)

Expand to show TLE details & history
Last TLE update: 13 hours ago

TLE from 13 hours ago
0 STARLINK-3116
1 49146U 21082S   26125.44893508  .00000057  00000-0  12800-4 0  9991
2 49146  69.9990 132.3205 0004033 265.7026  94.3672 14.97527737256109
Epoch: 2026-05-05T10:46Z
TLE epoch observation values (Epoch: 2026-05-05T10:46:27.990Z)
Latitude
-0.00003°
Longitude
107.38024°
Altitude
577.176 km
Speed
7.572 km/s
True Right ascension
08h 49m 16s
True Declination
0° 00' 00"
Sunlit
Object was in daylight at epoch
Visualization orbit readout
Latitude
Unknown
Longitude
Unknown
Altitude
Unknown
Speed
Unknown
Apparent Right ascension
Unknown
Apparent Declination
Unknown
Sunlit
N/A
Visualization observer readout
Local Sidereal Time
07:13:50
Azimuth
Unknown
Elevation
Unknown
Doppler factor
Unknown
Orbital elements
Apogee altitude
575.29 km
Perigee altitude
569.684 km
Semi-major axis
6,950.624 km
Eccentricity
0.0004
Inclination
69.999°
RAAN
132.3205°
Arg. of periapsis
265.7026°
True anomaly
94.41328°
Mean anomaly
94.3672°
Eccentric anomaly
94.39024°
Mean motion
3.74548 °/min
Orbital period
96.12 mins
BSTAR
0.0000128
Loading maneuver chart data...
Computing Atmospheric mass density...
Loading historical data...
Loading historical data...
Loading historical data...
Loading historical data...
Loading historical data...
Loading historical data...
Loading historical data...

Documentation

Showing up to 5 results
|